AAL350 CYYZ-KJFK

Flight info

Callsign AAL350
Flight time N/A
Altitude 35000
Route KEPTA3 BMPAH DCT AEVON DCT EXTOL Q140 YODAA DCT IGN IGN1
Aircraft B737/M-SDE2E3FGHIRWXY/LB1

Departure

Time 2026-05-07 21:33
Airport Toronto Pearson International Airport (CYYZ)

Arrival

Time N/A
Airport John F. Kennedy International Airport (KJFK)
Time Latitude Longitude Altitude Speed Heading
2026-05-07 21:09 43.68549 -79.62419 567 ft 0 kts 144°
2026-05-07 21:23 43.68556 -79.62427 563 ft 2 kts 145°
2026-05-07 21:24 43.68569 -79.62437 570 ft 2 kts 150°
2026-05-07 21:24 43.68582 -79.62447 571 ft 2 kts 158°
2026-05-07 21:24 43.68597 -79.62454 573 ft 2 kts 173°
2026-05-07 21:24 43.68614 -79.62452 566 ft 2 kts 208°
2026-05-07 21:25 43.68626 -79.62438 570 ft 2 kts 234°
2026-05-07 21:25 43.68629 -79.62432 570 ft 0 kts 236°
2026-05-07 21:25 43.68629 -79.62433 569 ft 0 kts 236°
2026-05-07 21:30 43.68607 -79.62477 567 ft 17 kts 234°
2026-05-07 21:30 43.68506 -79.62631 562 ft 19 kts 226°
2026-05-07 21:30 43.68527 -79.62812 564 ft 22 kts 315°
2026-05-07 21:31 43.68687 -79.63027 563 ft 35 kts 317°
2026-05-07 21:31 43.68827 -79.63204 561 ft 30 kts 317°
2026-05-07 21:31 43.68990 -79.63421 564 ft 33 kts 317°
2026-05-07 21:31 43.69127 -79.63512 566 ft 17 kts 35°
2026-05-07 21:32 43.69239 -79.63422 570 ft 15 kts 359°
2026-05-07 21:32 43.69289 -79.63420 569 ft 7 kts
2026-05-07 21:32 43.69386 -79.63491 570 ft 25 kts 287°
2026-05-07 21:32 43.69324 -79.63635 567 ft 39 kts 226°
2026-05-07 21:33 43.68925 -79.64221 566 ft 126 kts 226°
2026-05-07 21:33 43.68204 -79.65314 957 ft 167 kts 229°
2026-05-07 21:33 43.67350 -79.66558 1916 ft 186 kts 232°
2026-05-07 21:33 43.66604 -79.68049 2929 ft 191 kts 241°
2026-05-07 21:34 43.65902 -79.69604 3971 ft 191 kts 241°
2026-05-07 21:34 43.65197 -79.71162 4881 ft 198 kts 241°
2026-05-07 21:34 43.64447 -79.72814 5412 ft 214 kts 240°
2026-05-07 21:34 43.63604 -79.74622 5798 ft 229 kts 237°
2026-05-07 21:35 43.62336 -79.76002 6314 ft 243 kts 202°
2026-05-07 21:35 43.60635 -79.76213 6991 ft 252 kts 174°
2026-05-07 21:35 43.58994 -79.75289 7675 ft 262 kts 147°
2026-05-07 21:35 43.57700 -79.73489 8368 ft 268 kts 130°
2026-05-07 21:36 43.56618 -79.71368 9047 ft 273 kts 127°
2026-05-07 21:36 43.55917 -79.69916 9453 ft 279 kts 127°
2026-05-07 21:36 43.54784 -79.67610 9866 ft 297 kts 127°
2026-05-07 21:36 43.53174 -79.64424 10486 ft 321 kts 128°
2026-05-07 21:37 43.51838 -79.61813 10671 ft 346 kts 126°
2026-05-07 21:37 43.50863 -79.58696 11072 ft 365 kts 102°
2026-05-07 21:37 43.50738 -79.56324 11532 ft 371 kts 85°